Waarnemingen

Advertentie
Mijn weer
Aboyne, Groot Brittannië (3080): temperatuur & dauwpunt: 14.10.2018 20:00:00 - 20.10.2018 20:00:00 (BST)Aboyne, Groot Brittannië (3080): temperatuur -20cm & temperatuur -100cm: 14.10.2018 20:00:00 - 20.10.2018 20:00:00 (BST)Aboyne, Groot Brittannië (3080): windsnelheid & windstoten: 14.10.2018 20:00:00 - 20.10.2018 20:00:00 (BST)Aboyne, Groot Brittannië (3080): windrichting: 14.10.2018 20:00:00 - 20.10.2018 20:00:00 (BST)Aboyne, Groot Brittannië (3080): luchtdruk: 14.10.2018 20:00:00 - 20.10.2018 20:00:00 (BST)Aboyne, Groot Brittannië (3080): zicht: 14.10.2018 20:00:00 - 20.10.2018 20:00:00 (BST)Aboyne, Groot Brittannië (3080): neerslag: 14.10.2018 20:00:00 - 20.10.2018 20:00:00 (BST)
Datum & Tijd tt [°C] td [°C] tt -20cm [°C] tt -100cm [°C] ff [km/u] ff [kn] fx [km/u] fx [kn] dd ppp [hPa] vv [km] rr [mm]
20.10.2018 20:00:00 15,1 11,4 - - 16 9 - - W 1020,9 50 0,0
20.10.2018 19:00:00 14,9 11,3 - - 13 7 - - W 1020,8 50 0,0
20.10.2018 18:00:00 15,6 11,1 - - 13 7 - - W 1020,7 50 0,0
20.10.2018 17:00:00 17,4 11,8 - - 26 14 - - W 1020,1 50 0,0
20.10.2018 16:00:00 18,0 12,0 - - 15 8 - - W 1020,0 40 0,0
20.10.2018 15:00:00 16,6 11,3 - - 11 6 - - WZW 1020,8 35 0,0
20.10.2018 14:00:00 16,8 10,7 - - 28 15 52 28 WZW 1021,2 45 0,0
20.10.2018 13:00:00 18,1 11,3 - - 37 20 55 30 W 1020,3 35 0,0
20.10.2018 12:00:00 17,8 10,7 - - 22 12 - - W 1020,6 50 0,0
20.10.2018 11:00:00 9,4 7,8 - - 5 3 - - W 1021,6 35 0,0
20.10.2018 10:00:00 7,1 5,9 9,7 10,5 5 3 - - O 1021,8 30 0,0
20.10.2018 09:00:00 4,9 4,3 - - 8 4 - - O 1021,8 26 0,0
20.10.2018 08:00:00 2,8 2,4 - - 2 1 - - W 1022,1 19 0,0
20.10.2018 07:00:00 2,8 2,7 - - 4 2 - - O 1022,4 22 0,0
20.10.2018 06:00:00 1,3 1,0 - - 4 2 - - O 1023,3 10 0,0
20.10.2018 05:00:00 2,3 2,1 - - 8 4 - - O 1023,4 24 0,0
20.10.2018 04:00:00 2,6 2,3 - - 5 3 - - OZO 1023,7 19 0,0
20.10.2018 03:00:00 2,3 2,1 - - 8 4 - - ONO 1024,1 23 0,0
20.10.2018 02:00:00 2,2 1,3 - - 4 2 - - WZW 1024,5 21 0,0
20.10.2018 01:00:00 4,0 2,8 - - 5 3 - - ONO 1024,3 28 0,0
20.10.2018 00:00:00 5,5 3,5 - - 4 2 - - NNW 1024,6 30 0,0
19.10.2018 23:00:00 5,2 3,1 - - 4 2 - - ZZW 1024,6 30 0,0
19.10.2018 22:00:00 6,1 3,2 - - 4 2 - - W 1024,3 45 0,0
19.10.2018 21:00:00 7,5 3,7 - - 8 4 - - NW 1023,8 30 0,0
19.10.2018 20:00:00 7,9 3,8 - - 5 3 - - NNW 1023,2 30 0,0
19.10.2018 19:00:00 8,0 3,6 - - 9 5 - - WNW 1022,5 35 0,0
19.10.2018 18:00:00 10,2 4,0 - - 8 4 - - WNW 1021,4 30 0,0
19.10.2018 17:00:00 12,3 2,9 - - 26 14 - - W 1020,0 30 0,0
19.10.2018 16:00:00 14,0 5,8 - - 22 12 - - NW 1019,3 45 0,0
19.10.2018 15:00:00 13,5 7,2 - - 16 9 - - W 1018,6 40 0,0
19.10.2018 14:00:00 12,8 6,9 - - 15 8 - - W 1018,2 50 0,0
19.10.2018 13:00:00 12,6 6,2 - - 15 8 - - WZW 1018,1 50 0,0
19.10.2018 12:00:00 12,3 6,0 - - 8 4 - - W 1017,9 50 0,0
19.10.2018 11:00:00 11,2 4,9 - - 16 9 - - ZW 1017,9 40 0,0
19.10.2018 10:00:00 10,6 4,9 9,7 10,7 16 9 - - ZW 1018,5 45 0,0
19.10.2018 09:00:00 9,0 3,7 - - 16 9 - - WZW 1018,5 35 0,0
19.10.2018 08:00:00 8,9 3,9 - - 18 10 - - WZW 1018,5 45 0,0
19.10.2018 07:00:00 8,9 3,5 - - 18 10 - - WZW 1018,2 30 0,0
19.10.2018 06:00:00 8,5 3,6 - - 16 9 - - ZW 1019,1 40 0,0
19.10.2018 05:00:00 8,7 3,4 - - 18 10 - - ZW 1019,8 40 0,0
19.10.2018 04:00:00 8,5 3,5 - - 9 5 - - W 1020,4 50 0,0
19.10.2018 03:00:00 8,1 3,1 - - 4 2 - - N 1021,5 45 0,0
19.10.2018 02:00:00 8,0 3,3 - - 9 5 - - W 1022,1 50 0,0
19.10.2018 01:00:00 8,6 3,2 - - 22 12 - - ZZW 1022,9 50 0,0
19.10.2018 00:00:00 5,5 2,6 - - 4 2 - - ZO 1023,7 50 0,0
18.10.2018 23:00:00 1,7 1,4 - - 5 3 - - O 1024,7 35 0,0
18.10.2018 22:00:00 1,3 0,7 - - 5 3 - - ONO 1025,0 30 0,0
18.10.2018 21:00:00 3,2 2,0 - - 4 2 - - OZO 1025,4 30 0,0
18.10.2018 20:00:00 5,0 2,9 - - 8 4 - - O 1025,4 45 0,0
18.10.2018 19:00:00 6,7 2,8 - - 5 3 - - Z 1025,6 40 0,0
18.10.2018 18:00:00 8,8 3,6 - - 8 4 - - Z 1025,6 40 0,0
18.10.2018 17:00:00 9,7 4,0 - - 4 2 - - ZW 1025,6 50 0,0
18.10.2018 16:00:00 10,4 3,7 - - 5 3 - - O 1025,8 27 0,0
18.10.2018 15:00:00 10,2 3,4 - - 5 3 - - ZO 1026,6 35 0,0
18.10.2018 14:00:00 10,8 2,9 - - 5 3 - - O 1026,8 35 0,0
18.10.2018 13:00:00 10,1 3,8 - - 4 2 - - ZZW 1027,3 30 0,0
18.10.2018 12:00:00 7,7 4,0 - - 8 4 - - W 1028,2 30 0,0
18.10.2018 11:00:00 6,1 3,6 - - 8 4 - - W 1028,4 45 0,0
18.10.2018 10:00:00 2,2 1,4 9,9 10,7 8 4 - - W 1028,6 35 0,0
18.10.2018 09:00:00 -0,5 -0,6 - - 8 4 - - W 1029,0 23 0,0
18.10.2018 08:00:00 -2,1 -2,3 - - 8 4 - - WZW 1028,7 19 0,0
18.10.2018 07:00:00 -1,8 -2,0 - - 4 2 - - WZW 1028,2 24 0,0
18.10.2018 06:00:00 -2,6 -3,0 - - 4 2 - - NO 1027,9 21 0,0
18.10.2018 05:00:00 -1,2 -1,5 - - 4 2 - - NW 1027,3 24 0,0
18.10.2018 04:00:00 -1,1 -1,5 - - 8 4 - - WNW 1027,0 28 0,0
18.10.2018 03:00:00 -0,8 -0,9 - - 9 5 - - W 1027,0 30 0,0
18.10.2018 02:00:00 -1,2 -1,4 - - 5 3 - - WNW 1026,5 35 0,0
18.10.2018 01:00:00 -0,7 -1,0 - - 2 1 - - Z 1026,1 35 0,0
18.10.2018 00:00:00 -0,4 -0,6 - - 8 4 - - WZW 1025,8 40 0,0
17.10.2018 23:00:00 0,5 -0,6 - - 2 1 - - ZW 1025,3 35 0,0
17.10.2018 22:00:00 2,1 1,4 - - 4 2 - - ZW 1024,7 40 0,0
17.10.2018 21:00:00 2,3 1,5 - - 8 4 - - W 1023,9 45 0,0
17.10.2018 20:00:00 3,7 0,6 - - 2 1 - - WZW 1022,8 45 0,0
17.10.2018 19:00:00 6,6 2,6 - - 2 1 - - WNW 1021,5 50 0,0
17.10.2018 18:00:00 9,2 2,5 - - 8 4 - - WNW 1020,3 50 0,0
17.10.2018 17:00:00 12,0 3,2 - - 11 6 - - WNW 1019,1 45 0,0
17.10.2018 16:00:00 12,1 2,2 - - 21 11 - - WNW 1018,3 50 0,0
17.10.2018 15:00:00 13,3 2,0 - - 13 7 - - NW 1017,4 40 0,0
17.10.2018 14:00:00 13,2 3,8 - - 11 6 - - W 1016,5 26 0,0
17.10.2018 13:00:00 13,4 4,8 - - 15 8 - - W 1016,0 45 0,0
17.10.2018 12:00:00 12,2 7,4 - - 11 6 - - N 1015,2 50 0,0
17.10.2018 11:00:00 10,6 7,6 - - 8 4 - - WNW 1015,1 45 0,0
17.10.2018 10:00:00 6,6 5,7 10,2 10,9 5 3 - - WZW 1014,6 40 0,0
17.10.2018 09:00:00 2,3 2,2 - - 2 1 - - WZW 1013,8 40 0,0
17.10.2018 08:00:00 1,2 0,6 - - 2 1 - - ZO 1013,1 30 0,0
17.10.2018 07:00:00 2,1 1,1 - - 2 1 - - O 1012,0 30 0,0
17.10.2018 06:00:00 3,9 3,1 - - 5 3 - - Z 1011,0 50 0,0
17.10.2018 05:00:00 5,7 3,5 - - 4 2 - - W 1010,1 45 0,0
17.10.2018 04:00:00 8,9 5,1 - - 11 6 - - W 1009,1 50 0,0
17.10.2018 03:00:00 9,6 7,2 - - 11 6 - - W 1008,3 40 0,0
17.10.2018 02:00:00 7,2 6,7 - - 5 3 - - ONO 1008,2 35 0,0
17.10.2018 01:00:00 9,1 6,3 - - 4 2 - - W 1007,8 35 0,0
17.10.2018 00:00:00 7,8 6,8 - - 5 3 - - ZZO 1007,6 35 0,0
16.10.2018 23:00:00 6,9 4,2 - - 4 2 - - O 1007,5 40 0,0
16.10.2018 22:00:00 9,8 5,9 - - 8 4 - - WNW 1007,1 45 0,0
16.10.2018 21:00:00 11,6 6,7 - - 13 7 - - ZW 1006,5 45 0,0
16.10.2018 20:00:00 11,7 6,4 - - 5 3 - - ZZO 1006,2 50 0,0
16.10.2018 19:00:00 12,1 7,2 - - 15 8 - - ZW 1006,1 50 0,0
16.10.2018 18:00:00 13,0 8,2 - - 15 8 - - WZW 1005,5 50 0,0
16.10.2018 17:00:00 14,0 8,5 - - 21 11 - - ZW 1005,2 35 0,0
16.10.2018 16:00:00 13,8 8,0 - - 21 11 54 29 ZZW 1004,9 45 0,0
16.10.2018 15:00:00 13,9 7,7 - - 29 16 57 31 ZW 1005,1 50 0,0
16.10.2018 14:00:00 13,7 6,5 - - 37 20 72 39 ZZW 1004,7 50 0,0
16.10.2018 13:00:00 12,6 5,1 - - 15 8 - - ZO 1005,6 40 0,0
16.10.2018 12:00:00 12,0 6,6 - - 11 6 46 25 Z 1006,7 50 0,0
16.10.2018 11:00:00 10,9 7,2 - - 18 10 - - Z 1007,8 40 0,0
16.10.2018 10:00:00 10,5 7,4 10,2 11,0 5 3 - - O 1008,2 50 0,0
16.10.2018 09:00:00 8,8 6,3 - - 13 7 - - OZO 1009,2 45 0,0
16.10.2018 08:00:00 8,3 5,6 - - 8 4 - - ZZO 1009,6 50 0,0
16.10.2018 07:00:00 7,8 5,1 - - 8 4 - - ZZO 1010,0 50 0,0
16.10.2018 06:00:00 7,9 4,6 - - 15 8 - - ZZO 1010,8 40 0,0
16.10.2018 05:00:00 7,9 4,8 - - 11 6 - - O 1011,5 50 0,0
16.10.2018 04:00:00 7,3 3,8 - - 8 4 - - O 1012,2 50 0,0
16.10.2018 03:00:00 7,1 3,4 - - 5 3 - - Z 1012,8 50 0,0
16.10.2018 02:00:00 5,2 4,1 - - 4 2 - - Z 1013,8 50 0,0
16.10.2018 01:00:00 6,4 4,3 - - 5 3 - - ONO 1014,2 45 0,0
16.10.2018 00:00:00 3,6 3,4 - - 4 2 - - O 1015,0 35 0,0
15.10.2018 23:00:00 3,1 2,7 - - 2 1 - - W 1015,5 30 0,0
15.10.2018 22:00:00 3,1 2,7 - - 5 3 - - O 1015,3 28 0,0
15.10.2018 21:00:00 2,6 1,7 - - 2 1 - - ZO 1015,7 40 0,0
15.10.2018 20:00:00 3,5 2,7 - - 2 1 - - ZW 1015,8 45 0,0
15.10.2018 19:00:00 5,6 2,7 - - 5 3 - - W 1015,1 45 0,0
15.10.2018 18:00:00 8,7 4,8 - - 2 1 - - ZZW 1014,5 45 0,0
15.10.2018 17:00:00 12,7 5,9 - - 2 1 - - ZZO 1014,0 50 0,0
15.10.2018 16:00:00 13,2 4,7 - - 9 5 - - OZO 1013,9 14 0,0
15.10.2018 15:00:00 14,5 4,1 - - 8 4 - - W 1014,0 40 0,0
15.10.2018 14:00:00 14,0 4,2 - - 5 3 - - ZW 1014,4 40 0,0
15.10.2018 13:00:00 12,2 5,6 - - 8 4 - - ZO 1014,8 18 0,0
15.10.2018 12:00:00 9,0 5,7 - - 8 4 - - O 1015,2 35 0,0
15.10.2018 11:00:00 3,6 3,4 - - 4 2 - - NO 1015,2 50 0,0
15.10.2018 10:00:00 3,0 2,8 10,5 11,2 2 1 - - WNW 1015,2 45 0,0
15.10.2018 09:00:00 1,8 1,7 - - 8 4 - - WNW 1014,9 50 0,2
15.10.2018 08:00:00 0,9 0,9 - - 9 5 - - NW 1014,6 50 0,0
15.10.2018 07:00:00 0,6 0,6 - - 2 1 - - W 1014,3 27 0,0
15.10.2018 06:00:00 0,3 0,3 - - 2 1 - - N 1014,2 45 0,0
15.10.2018 05:00:00 0,3 0,2 - - 4 2 - - NO 1013,7 35 0,0
15.10.2018 04:00:00 0,7 0,6 - - 4 2 - - WZW 1013,7 45 0,0
15.10.2018 03:00:00 0,2 0,2 - - 8 4 - - WZW 1013,9 35 0,0
15.10.2018 02:00:00 -1,4 -1,7 - - 2 1 - - ONO 1013,8 35 0,0
15.10.2018 01:00:00 -0,9 -1,2 - - 4 2 - - W 1013,5 35 0,0
15.10.2018 00:00:00 -0,2 -0,2 - - 5 3 - - W 1013,4 30 0,0
14.10.2018 23:00:00 -0,5 -0,8 - - 5 3 - - WNW 1013,0 45 0,0
14.10.2018 22:00:00 0,7 0,6 - - 8 4 - - WNW 1012,3 30 0,0
14.10.2018 21:00:00 0,9 0,4 - - 2 1 - - NO 1011,9 35 0,0
14.10.2018 20:00:00 1,7 1,0 - - 4 2 - - W 1011,1 50 0,0

tt = temperatuur
td = dauwpunt
tt -20cm = temperatuur -20cm
tt -100cm = temperatuur -100cm
ff = windsnelheid
fx = windstoten
dd = windrichting
ppp = luchtdruk
vv = zicht
rr = neerslag

Weerstations in de omgeving